EN

Hourly Weather Papushevo

Today, 28 February, Sunday

Time Temperature Precipitation Wind Pressure Humidity
00:00 -14°C° 0 mm 2 mps 750 mmHg 96%
01:00 -14°C° 0 mm 2 mps 750 mmHg 96%
02:00 -15°C° 0 mm 2 mps 750 mmHg 96%
03:00 -12°C° 0 mm 1 mps 750 mmHg 99%
04:00 -12°C° 0 mm 1 mps 751 mmHg 98%
05:00 -11°C° 0 mm 1 mps 751 mmHg 97%
06:00 -11°C° 0 mm 1 mps 751 mmHg 96%
07:00 -12°C° 0 mm 2 mps 751 mmHg 95%
08:00 -12°C° 0 mm 2 mps 751 mmHg 94%
09:00 -10°C° 0 mm 2 mps 751 mmHg 93%
10:00 -9°C° 0 mm 2 mps 751 mmHg 91%
11:00 -8°C° 0 mm 2 mps 752 mmHg 90%
12:00 -7°C° 0 mm 2 mps 752 mmHg 88%
13:00 -7°C° 0 mm 2 mps 752 mmHg 88%
14:00 -6°C° 0 mm 2 mps 752 mmHg 88%
15:00 -6°C° 0 mm 2 mps 752 mmHg 88%
16:00 -6°C° 0 mm 2 mps 752 mmHg 89%
17:00 -6°C° 0 mm 2 mps 753 mmHg 91%
18:00 -6°C° 0 mm 2 mps 753 mmHg 93%
19:00 -6°C° 0 mm 1 mps 753 mmHg 93%
20:00 -6°C° 0 mm 1 mps 754 mmHg 94%
21:00 -6°C° 0 mm 1 mps 754 mmHg 95%
22:00 -7°C° 0 mm 1 mps 755 mmHg 95%
23:00 -8°C° 0 mm 1 mps 755 mmHg 95%

Tomorrow, 1 March, Monday

Time Temperature Precipitation Wind Pressure Humidity
00:00 -9°C° 0 mm 1 mps 756 mmHg 95%
01:00 -10°C° 0 mm 1 mps 756 mmHg 95%
02:00 -11°C° 0 mm 1 mps 757 mmHg 95%
03:00 -12°C° 0 mm 1 mps 757 mmHg 95%
04:00 -12°C° 0 mm 1 mps 757 mmHg 96%
05:00 -13°C° 0 mm 1 mps 757 mmHg 96%
06:00 -13°C° 0 mm 1 mps 757 mmHg 96%
07:00 -12°C° 0 mm 1 mps 758 mmHg 96%
08:00 -11°C° 0 mm 1 mps 758 mmHg 95%
09:00 -10°C° 0 mm 1 mps 759 mmHg 95%
10:00 -8°C° 0 mm 1 mps 758 mmHg 94%
11:00 -7°C° 0 mm 2 mps 758 mmHg 92%
12:00 -6°C° 0 mm 2 mps 758 mmHg 91%
13:00 -6°C° 0 mm 3 mps 758 mmHg 91%
14:00 -5°C° 0 mm 3 mps 758 mmHg 91%
15:00 -5°C° 0 mm 3 mps 757 mmHg 91%
16:00 -4°C° 0 mm 4 mps 757 mmHg 91%
17:00 -4°C° 0 mm 4 mps 756 mmHg 91%
18:00 -4°C° 0 mm 4 mps 756 mmHg 91%
19:00 -4°C° 0 mm 4 mps 755 mmHg 92%
20:00 -3°C° 0 mm 4 mps 755 mmHg 92%
21:00 -3°C° 0 mm 4 mps 754 mmHg 92%
22:00 -2°C° 0 mm 5 mps 753 mmHg 93%
23:00 -2°C° 0 mm 5 mps 752 mmHg 93%

Day after tomorrow, 2 March, Tuesday

Time Temperature Precipitation Wind Pressure Humidity
00:00 -1°C° 0 mm 5 mps 752 mmHg 94%
01:00 -1°C° 0 mm 5 mps 751 mmHg 93%
02:00 -1°C° 0 mm 5 mps 751 mmHg 93%
03:00 -1°C° 0 mm 5 mps 750 mmHg 92%
04:00 -1°C° 0 mm 5 mps 749 mmHg 93%
05:00 -1°C° 0 mm 5 mps 749 mmHg 94%
06:00 -1°C° 0 mm 5 mps 748 mmHg 94%
07:00 -1°C° 0 mm 5 mps 748 mmHg 95%
08:00 -1°C° 0 mm 5 mps 748 mmHg 96%
09:00 -1°C° 0 mm 5 mps 747 mmHg 97%
10:00 -1°C° 0.1 mm 5 mps 747 mmHg 97%
11:00 -1°C° 0.1 mm 4 mps 747 mmHg 97%
12:00 -1°C° 0.1 mm 4 mps 746 mmHg 97%
13:00 -1°C° 0.1 mm 4 mps 746 mmHg 96%
14:00 0°C° 0.1 mm 3 mps 746 mmHg 96%
15:00 0°C° 0.1 mm 3 mps 746 mmHg 95%
16:00 0°C° 0 mm 3 mps 746 mmHg 93%
17:00 -1°C° 0 mm 3 mps 746 mmHg 91%
18:00 -1°C° 0 mm 2 mps 746 mmHg 89%
19:00 -2°C° 0 mm 3 mps 746 mmHg 90%
20:00 -2°C° 0 mm 3 mps 746 mmHg 91%
21:00 -2°C° 0 mm 3 mps 747 mmHg 92%
22:00 -2°C° 0 mm 3 mps 747 mmHg 92%
23:00 -2°C° 0 mm 3 mps 747 mmHg 92%

3 March, Wednesday

Time Temperature Precipitation Wind Pressure Humidity
00:00 -4°C° 0 mm 3 mps 747 mmHg 91%
01:00 -4°C° 0 mm 3 mps 747 mmHg 92%
02:00 -4°C° 0 mm 3 mps 748 mmHg 93%
03:00 -4°C° 0 mm 3 mps 748 mmHg 93%
04:00 -5°C° 0 mm 3 mps 748 mmHg 94%
05:00 -5°C° 0 mm 3 mps 748 mmHg 94%
06:00 -5°C° 0 mm 4 mps 748 mmHg 95%
07:00 -5°C° 0 mm 4 mps 748 mmHg 94%
08:00 -4°C° 0 mm 4 mps 749 mmHg 93%
09:00 -5°C° 0 mm 5 mps 750 mmHg 91%
10:00 -5°C° 0 mm 5 mps 750 mmHg 89%
11:00 -5°C° 0 mm 5 mps 750 mmHg 86%
12:00 -5°C° 0 mm 6 mps 751 mmHg 84%
13:00 -5°C° 0 mm 5 mps 751 mmHg 83%
14:00 -5°C° 0 mm 5 mps 751 mmHg 82%
15:00 -5°C° 0 mm 5 mps 752 mmHg 82%
16:00 -5°C° 0 mm 4 mps 751 mmHg 83%
17:00 -6°C° 0 mm 3 mps 751 mmHg 85%
18:00 -6°C° 0 mm 2 mps 751 mmHg 87%
19:00 -7°C° 0 mm 3 mps 751 mmHg 88%
20:00 -7°C° 0 mm 3 mps 752 mmHg 90%
21:00 -7°C° 0 mm 3 mps 752 mmHg 91%
22:00 -6°C° 0 mm 3 mps 751 mmHg 91%
23:00 -6°C° 0 mm 3 mps 751 mmHg 92%

4 March, Thursday

Time Temperature Precipitation Wind Pressure Humidity
00:00 -5°C° 0 mm 4 mps 750 mmHg 92%
01:00 -4°C° 0 mm 4 mps 750 mmHg 92%
02:00 -4°C° 0 mm 4 mps 749 mmHg 92%
03:00 -4°C° 0 mm 4 mps 748 mmHg 93%
04:00 -4°C° 0 mm 4 mps 748 mmHg 92%
05:00 -5°C° 0 mm 5 mps 747 mmHg 91%
06:00 -5°C° 0 mm 5 mps 746 mmHg 91%
07:00 -5°C° 0 mm 6 mps 745 mmHg 90%
08:00 -5°C° 0 mm 6 mps 745 mmHg 90%
09:00 -5°C° 0 mm 6 mps 744 mmHg 89%
10:00 -4°C° 0 mm 7 mps 743 mmHg 88%
11:00 -3°C° 0 mm 7 mps 742 mmHg 87%
12:00 -3°C° 0 mm 7 mps 741 mmHg 86%
13:00 -3°C° 0 mm 7 mps 741 mmHg 86%
14:00 -3°C° 0 mm 7 mps 741 mmHg 86%
15:00 -2°C° 0 mm 7 mps 741 mmHg 86%
16:00 -3°C° 0 mm 7 mps 741 mmHg 88%
17:00 -3°C° 0 mm 6 mps 741 mmHg 90%
18:00 -3°C° 0 mm 6 mps 741 mmHg 92%
19:00 -2°C° 0.2 mm 5 mps 741 mmHg 90%
20:00 -3°C° 0.2 mm 4 mps 742 mmHg 88%
21:00 -3°C° 0.2 mm 4 mps 742 mmHg 86%
22:00 -4°C° 0 mm 3 mps 742 mmHg 87%
23:00 -5°C° 0 mm 3 mps 743 mmHg 87%

5 March, Friday

Time Temperature Precipitation Wind Pressure Humidity
00:00 -5°C° 0 mm 2 mps 743 mmHg 87%
01:00 -6°C° 0 mm 2 mps 743 mmHg 89%
02:00 -7°C° 0 mm 2 mps 743 mmHg 91%
03:00 -7°C° 0 mm 2 mps 744 mmHg 92%
04:00 -8°C° 0 mm 2 mps 744 mmHg 93%
05:00 -8°C° 0 mm 1 mps 744 mmHg 93%
06:00 -8°C° 0 mm 1 mps 745 mmHg 94%
07:00 -8°C° 0 mm 1 mps 745 mmHg 93%
08:00 -8°C° 0 mm 1 mps 745 mmHg 92%
09:00 -7°C° 0 mm 1 mps 746 mmHg 91%
10:00 -6°C° 0 mm 1 mps 746 mmHg 88%
11:00 -6°C° 0 mm 2 mps 746 mmHg 85%
12:00 -5°C° 0 mm 2 mps 747 mmHg 81%
13:00 -4°C° 0 mm 2 mps 747 mmHg 80%
14:00 -4°C° 0 mm 2 mps 747 mmHg 78%
15:00 -4°C° 0 mm 2 mps 747 mmHg 77%
16:00 -5°C° 0 mm 2 mps 748 mmHg 80%
17:00 -4°C° 0 mm 1 mps 748 mmHg 83%
18:00 -6°C° 0 mm 1 mps 748 mmHg 86%
19:00 -7°C° 0 mm 1 mps 748 mmHg 87%
20:00 -8°C° 0 mm 1 mps 749 mmHg 88%
21:00 -8°C° 0 mm 1 mps 749 mmHg 90%
22:00 -9°C° 0 mm 1 mps 749 mmHg 90%
23:00 -9°C° 0 mm 1 mps 750 mmHg 90%
Show more

We Need Your Consent

Meteoprog and our Service Providers may store and access personal data such as cookies, device identifiers or other similar technologies on your device and process such data to personalise content and ads, as well as provide social media features and to analyse the traffic.

  • Store and/or access information on your device

    Cookies, device identifiers or other information can be stored or accessed on your device for the purposes indicated above.

  • Personalised ads and content, ad and content measurement, audience insights, and products development

    Ads and content can be personalised based on a profile. More data can be added to better personalise ads and content. Ad and content performance can be measured. Insights about the audience who saw the ads and content can be derived. Such data can be used to develop or improve user’s experience, systems and software.

By clicking ‘I Agree’ you will allow the use of indicated cookies, device identifiers, web beacons or other similar technologies. Your settings can be changed in the browser on your device.

For certain purposes, legitimate interests may be relied on, rather than consent. You can read more about this in our Privacy and Cookie Policy.